Details for Wideroe at ENBO




Go Back


Latest METAR
Local Time

ENBO 220920Z 11009KT 9999 FEW020 SCT050 BKN080 12/06 Q0970 NOSIG
22/09/2018, 11:45:35

Description
Results
Wideroe Logo
Number of Pilots based at ENBO
0 Pilots Based here
Number of Wideroe Flights Departed from ENBO
0 Flights Departed
Number of Wideroe Flights Arrived at ENBO
0 Flights Arrived
Number of Wideroe Schedules Departing from ENBO
47 Schedules
Number of Wideroe Schedules Arriving at ENBO
47 Schedules
Number of Wideroe Schedules Departing from ENBO availible today
10 Schedules Today
Number of Wideroe Schedules Arriving at ENBO availible today
9 Schedules Today
Average Landing Rate at ENBO
-92 fpm
Wideroe Average Landing Rate at ENBO
0 fpm
Total Fuel Purchased at ENBO by Wideroe
0.00 kgs / 0.00 lbs

Pilots Based at ENBO


Pilot ID
Pilot Name
Pilot Rank
No. of Flights
No. of Flying Hours
There are no pilots assigned to this hub!   Will you be the first?
Content